Weather History for KBKL - March, 2014

Change the Weather History Date:

Thursday, March 20, 2014

  Actual Average Record
Temperature  
Mean Temperature 35 °F -  
Max Temperature 37 °F 43 °F 79 °F (2012)
Min Temperature 33 °F 30 °F 24 °F (2013)
Degree Days  
Heating Degree Days 30    
Moisture  
Dew Point 29 °F    
Average Humidity 79    
Maximum Humidity 89    
Minimum Humidity 70    
Precipitation  
Precipitation 0.00 in - - ()
Sea Level Pressure  
Sea Level Pressure 29.94 in    
Wind  
Wind Speed 19 mph (WSW)    
Max Wind Speed 24 mph    
Max Gust Speed 31 mph    
Visibility 9 miles    
Events      
Averages and records for this station are not official NWS values.
T = Trace of Precipitation, MM = Missing Value Source: NWS Daily Summary

Daily Weather History Graph

Daily Weather History Graph

Search for Another Location

Airport or City:

Trip Planner

Search our weather history database for the weather conditions in past years. The results will help you decide how hot, cold, wet, or windy it might be!

Date:

Astronomy

Mar. 20, 2014 Rise Set
Actual Time 7:30 AM EDT 7:38 PM EDT
Civil Twilight 7:02 AM EDT 8:06 PM EDT
Nautical Twilight 6:30 AM EDT 8:39 PM EDT
Astronomical Twilight 5:57 AM EDT 9:12 PM EDT
Moon No Moon Rise 9:32 AM EDT (3/20)
Length of Visible Light 13h 04m
Length of Day
12h 08m
Waning Gibbous, 84% of the Moon is Illuminated
Mar 20
Waning Gibbous
Mar 23
Last Quarter
Mar 30
New
Apr 7
First Quarter
Apr 15
Full

Hourly Weather History & Observations

Time (EDT) Temp. Windchill Dew Point Humidity Pressure Visibility Wind Dir Wind Speed Gust Speed Precip Events Conditions
12:53 AM 36.0 °F 24.4 °F 33.1 °F 89% 29.86 in 9.0 mi WSW 23.0 mph - N/A   Overcast
1:53 AM 37.0 °F 27.4 °F 33.1 °F 86% 29.86 in 8.0 mi WSW 17.3 mph - N/A   Overcast
2:06 AM 37.4 °F 27.2 °F 32.0 °F 81% 29.85 in 9.0 mi WSW 19.6 mph - N/A   Overcast
2:28 AM 37.4 °F 26.9 °F 32.0 °F 81% 29.85 in 10.0 mi WSW 20.7 mph - N/A   Overcast
2:53 AM 37.9 °F 27.9 °F 32.0 °F 79% 29.86 in 10.0 mi WSW 19.6 mph 26.5 mph N/A   Overcast
3:53 AM 36.0 °F 24.7 °F 32.0 °F 86% 29.85 in 8.0 mi WSW 21.9 mph 28.8 mph N/A   Overcast
4:53 AM 36.0 °F 25.6 °F 32.0 °F 86% 29.86 in 7.0 mi WSW 18.4 mph 27.6 mph N/A   Overcast
5:51 AM 35.6 °F 23.7 °F 30.2 °F 81% 29.87 in 8.0 mi WSW 24.2 mph 28.8 mph N/A   Overcast
5:53 AM 35.1 °F 23.0 °F 30.0 °F 82% 29.88 in 8.0 mi WSW 24.2 mph 29.9 mph N/A   Overcast
6:53 AM 35.1 °F 23.5 °F 28.9 °F 78% 29.90 in 9.0 mi WSW 21.9 mph 29.9 mph N/A   Overcast
7:53 AM 34.0 °F 21.8 °F 28.0 °F 79% 29.92 in 9.0 mi WSW 23.0 mph 31.1 mph N/A   Overcast
8:53 AM 34.0 °F 21.8 °F 28.0 °F 79% 29.93 in 10.0 mi WSW 23.0 mph - N/A   Overcast
9:53 AM 34.0 °F 21.8 °F 27.0 °F 75% 29.96 in 10.0 mi WSW 23.0 mph 28.8 mph N/A   Overcast
10:53 AM 35.1 °F 23.8 °F 28.0 °F 76% 29.98 in 10.0 mi WSW 20.7 mph 27.6 mph N/A   Overcast
11:53 AM 35.1 °F 24.8 °F 27.0 °F 72% 29.98 in 10.0 mi WSW 17.3 mph - N/A   Overcast
12:53 PM 35.1 °F 23.5 °F 26.1 °F 70% 29.98 in 10.0 mi WSW 21.9 mph 31.1 mph N/A   Overcast
1:53 PM 35.1 °F 23.8 °F 26.1 °F 70% 29.99 in 10.0 mi West 20.7 mph 29.9 mph N/A   Overcast
2:53 PM 35.1 °F 24.5 °F 27.0 °F 72% 29.98 in 10.0 mi West 18.4 mph - N/A   Overcast
3:53 PM 35.1 °F 26.9 °F 28.0 °F 76% 29.98 in 10.0 mi West 11.5 mph - N/A   Overcast
4:53 PM 35.1 °F 27.9 °F 28.0 °F 76% 29.99 in 10.0 mi WSW 9.2 mph - N/A   Overcast
5:53 PM 35.1 °F 27.9 °F 28.9 °F 78% 29.99 in 10.0 mi WSW 9.2 mph - N/A   Overcast
6:53 PM 34.0 °F 27.2 °F 28.9 °F 82% 30.01 in 10.0 mi WSW 8.1 mph - N/A   Overcast
7:53 PM 34.0 °F 28.0 °F 28.0 °F 79% 30.01 in 10.0 mi WSW 6.9 mph - N/A   Overcast
8:53 PM 34.0 °F 28.0 °F 27.0 °F 75% 30.03 in 10.0 mi WSW 6.9 mph - N/A   Overcast
9:53 PM 33.1 °F 28.7 °F 27.0 °F 78% 30.04 in 10.0 mi WSW 4.6 mph - N/A   Overcast
10:53 PM 33.1 °F 28.7 °F 27.0 °F 78% 30.04 in 10.0 mi West 4.6 mph - N/A   Overcast
11:53 PM 33.1 °F 27.7 °F 27.0 °F 78% 30.06 in 10.0 mi West 5.8 mph - N/A   Overcast